|   |  | Asteroid 2003 EO16
					
					
					
					
						
					
					
						
							(Preview) 
						
							
								The 220 - 480 metre wide asteroid 2003 EO16 will make a close pass (71.5 lunar distances, 0.1837 AU), travelling at 11.40 km/second, to the Earth-Moon system on the 20th April, 2013 @ 23:59 UT ±00:01.  See more The Lunar Distance (LD), the distance between Earth and the Moon, equals 384,401 km, (or 0.0...  | Blobrana | 0 |  |  | 
		
			
			
				
				
					|   |  | Asteroid 2013 HQ
					
					
					
					
						
					
					
						
							(Preview) 
						
							
								Orbital elements:
2013 HQ                                                  Earth MOID = 0.1150 AU
Epoch 2013 Apr. 18.0 TT = JDT 2456400.5                 MPC
M  34.22773              (2000.0)            P               Q
n   0.60690476     Peri.   54.11727     +0.06092801     -0.94463596
a   1.3816213      Node    36.76731     +0.65000650     -0.20758236
e   0.6748679      Incl.   32.59132     +0.75748223     +0.25411113
P   1.62           H   22.2           G   0.1...                 | Blobrana | 1 |  |  | 
		
			
			
				
				
					|   |  | Asteroid 2013 HR
					
					
					
					
						
					
					
						
							(Preview) 
						
							
								Orbital elements:
2013 HR                                                  Earth MOID = 0.0319 AU
Epoch 2013 Apr. 18.0 TT = JDT 2456400.5                 MPC
M  13.50438              (2000.0)            P               Q
n   0.25029869     Peri.  271.53354     -0.72309467     -0.68916451
a   2.4936203      Node   224.90573     +0.65716917     -0.66551512
e   0.6784453      Incl.    3.79781     +0.21275051     -0.28660407
P   3.94           H   23.7           G   0....                 | Blobrana | 0 |  |  | 
		
			
			
				
				
					|   |   | Asteroid 2013 GH84
					
					
					
					
						
					
					
						
							(Preview) 
						
							
								Orbital elements:
2013 GH84                                           PHA, Earth MOID = 0.0252 AU
Epoch 2013 Apr. 18.0 TT = JDT 2456400.5                 MPC
M 351.08632              (2000.0)            P               Q
n   0.50824416     Peri.  186.44837     -0.50668017     +0.83741190
a   1.5550861      Node    53.30733     -0.77913388     -0.34298362
e   0.3677552      Incl.   14.81105     -0.36908752     -0.42556262
P   1.94           H...                                  | Blobrana | 0 |  |  | 
		
			
			
				
				
					|   |  | Asteroid 2013 HA
					
					
					
					
						
					
					
						
							(Preview) 
						
							
								Orbital elements:
2013 HA
Epoch 2013 Apr. 18.0 TT = JDT 2456400.5                 MPC
M 357.77979              (2000.0)            P               Q
n   0.10232074     Peri.  152.25949     -0.95213850     +0.23392390
a   4.5271715      Node    42.79238     -0.30531984     -0.75850103
e   0.6232749      Incl.   16.83537     +0.01456245     -0.60823991
P   9.63           H   16.5           G   0.15           U   4 MPEC 2013 - H14 K...  | Blobrana | 0 |  |  | 
		
			
			
				
				
					|   |  | Asteroid 2013 GE84
					
					
					
					
						
					
					
						
							(Preview) 
						
							
								Orbital elements:
2013 GE84                                                Earth MOID = 0.1796 AU
Epoch 2013 Apr. 18.0 TT = JDT 2456400.5                 MPC
M  23.06953              (2000.0)            P               Q
n   0.39108368     Peri.   18.28576     -0.35113352     -0.90963243
a   1.8519230      Node    92.75123     +0.82894050     -0.41223899
e   0.6256437      Incl.   12.84027     +0.43538822     +0.05126264
P   2.52           H   19.5           G   0...                 | Blobrana | 0 |  |  | 
		
			
			
				
				
					|   |  | Asteroid 2008 TD
					
					
					
					
						
					
					
						
							(Preview) 
						
							
								The 23 - 52 metre wide asteroid 2008 TD will make a close pass (53.4 lunar distances, 0.1373 AU), travelling at 6.82 km/second, to the Earth-Moon system on the 4th July, 2013 @ 21:46 UT ±2 day 16:36.  See more The Lunar Distanc...               | Blobrana | 0 |  |  | 
		
			
			
				
				
					|   |  | Asteroid 2008 TF4
					
					
					
					
						
					
					
						
							(Preview) 
						
							
								Orbital elements:
2008 TF4                                                 Earth MOID = 0.4247 AU
Epoch 2013 Apr. 18.0 TT = JDT 2456400.5                 MPC
M 291.50585              (2000.0)            P               Q
n   0.37805779     Peri.  113.09984     +0.79052440     +0.56966473
a   1.8942208      Node   213.47355     -0.59341851     +0.80326101
e   0.3195943      Incl.   24.05734     +0.15141220     +0.17393632
P   2.61           H   19.2...                               | Blobrana | 0 |  |  | 
		
			
			
				
				
					|   |  | Asteroid 2013 GZ79
					
					
					
					
						
					
					
						
							(Preview) 
						
							
								Orbital elements:
2013 GZ79                                                Earth MOID = 0.3059 AU
Epoch 2013 Apr. 18.0 TT = JDT 2456400.5                 MPC
M 336.43783              (2000.0)            P               Q
n   0.45207705     Peri.  102.56350     -0.18635854     +0.97589580
a   1.6813614      Node   155.78203     -0.97413331     -0.16849916
e   0.2931758      Incl.   16.07264     -0.12780766     -0.13869179
P   2.18           H   19....                               | Blobrana | 0 |  |  | 
		
			
			
				
				
					|   |   | Asteroid 2013 GA80
					
					
					
					
						
					
					
						
							(Preview) 
						
							
								Orbital elements:
2013 GA80                                           PHA, Earth MOID = 0.0325 AU
Epoch 2013 Apr. 18.0 TT = JDT 2456400.5                 MPC
M  35.01514              (2000.0)            P               Q
n   0.77496618     Peri.  133.10118     -0.89773504     -0.35611225
a   1.1738544      Node    29.14064     +0.03527437     -0.64490345
e   0.1535726      Incl.   32.17922     +0.43912130     -0.67622747
P   1.27           H   2...                                  | Blobrana | 0 |  |  | 
		
			
			
				
				
					|   |  | Asteroid 2013 GX79
					
					
					
					
						
					
					
						
							(Preview) 
						
							
								Orbital elements:
2013 GX79                                                Earth MOID = 0.3248 AU
Epoch 2013 Apr. 18.0 TT = JDT 2456400.5                 MPC
M 162.35026              (2000.0)            P               Q
n   0.90599595     Peri.  194.87879     +0.77383392     -0.60871873
a   1.0577553      Node   205.28533     +0.61490573     +0.78826957
e   0.4140290      Incl.   24.19431     +0.15189474     -0.08995886
P   1.09           H   20....                               | Blobrana | 0 |  |  | 
		
			
			
				
				
					|   |  | Asteroid 2013 GU79
					
					
					
					
						
					
					
						
							(Preview) 
						
							
								Orbital elements:
2013 GU79                                                Earth MOID = 0.2671 AU
Epoch 2013 Apr. 18.0 TT = JDT 2456400.5                 MPC
M 356.34553              (2000.0)            P               Q
n   0.31968939     Peri.   51.78633     -0.74049604     +0.67203041
a   2.1182826      Node   170.43177     -0.62798276     -0.68851574
e   0.3990792      Incl.    2.20057     -0.23938100     -0.27261915
P   3.08           H   21.3           G...                    | Blobrana | 0 |  |  | 
		
			
			
				
				
					|   |  | Asteroid 2013 GT79
					
					
					
					
						
					
					
						
							(Preview) 
						
							
								Orbital elements:
2013 GT79                                                Earth MOID = 0.0050 AU
Epoch 2013 Apr. 18.0 TT = JDT 2456400.5                 MPC
M 347.16587              (2000.0)            P               Q
n   0.30105586     Peri.   44.40309     -0.01752782     +0.99966128
a   2.2048108      Node   224.60316     -0.92479787     -0.02352300
e   0.6179222      Incl.    1.56995     -0.38005484     +0.01113559
P   3.27           H   24.1           G...                    | Blobrana | 1 |  |  | 
		
			
			
				
				
					|   |  | Asteroid 2008 HO3
					
					
					
					
						
					
					
						
							(Preview) 
						
							
								Orbital elements:
2008 HO3                                                 Earth MOID = 0.1013 AU
Epoch 2013 Apr. 18.0 TT = JDT 2456400.5                 MPC
M 328.51742              (2000.0)            P               Q
n   0.20000928     Peri.  126.62177     +0.89421270     +0.43317677
a   2.8958048      Node   208.22607     -0.44739725     +0.87318536
e   0.6584878      Incl.   13.80793     +0.01481036     +0.22339473
P   4.93           H   18.1...                               | Blobrana | 0 |  |  | 
		
			
			
				
				
					|   |  | Asteroid 2013 GY73
					
					
					
					
						
					
					
						
							(Preview) 
						
							
								Orbital elements:
2013 GY73                                                Earth MOID = 0.3077 AU
Epoch 2013 Apr. 18.0 TT = JDT 2456400.5                 MPC
M  46.54689              (2000.0)            P               Q
n   0.29804077     Peri.   61.60287     -0.30756532     -0.90966600
a   2.2196556      Node    49.16097     +0.69155748     -0.41518848
e   0.4767870      Incl.   21.65063     +0.65356853     +0.01123828
P   3.31           H   18.9           G   0...                 | Blobrana | 0 |  |  |